Weather Roundup
Issued by NWS Corpus Christi, TX

Home | Current Version | Previous Version | Text Only | Print | Product List | Glossary On
Versions: 1 2 3 4 5 6 7 8 9 10 11 12 13 14 15 16 17 18 19 20 21 22 23 24 25 26 27 28 29 30 31 32 33 34 35 36 37 38 39 40 41 42 43 44 45 46 47 48 49 50
000
ASUS44 KCRP 201210
HRRCRP

SOUTH TEXAS REGIONAL WEATHER ROUNDUP
NATIONAL WEATHER SERVICE CORPUS CHRISTI TX
600 AM CST MON NOV 20 2017


TXZ229>244-201300-
...CORPUS CHRISTI AREA OBSERVATIONS...

CITY           SKY/WX    TMP DP  RH WIND       PRES   REMARKS
CORPUS CHRISTI PTCLDY    47  36  65 N6        30.17S
NAS CORPUS CHR MOCLDY    62  48  60 N13       30.16R
ROCKPORT       PTCLDY    54  47  77 NE7       30.17S
KINGSVILLE ARP MOCLDY    47  44  88 NW3       30.18S
KINGSVILLE NAS PTCLDY    46  42  86 NW6       30.17S
ALICE          CLEAR     46  39  76 NW5       30.17S
$$

...VICTORIA AREA OBSERVATIONS...

CITY           SKY/WX    TMP DP  RH WIND       PRES   REMARKS
PORT LAVACA    PTCLDY    50  39  66 NE6       30.18F
VICTORIA       CLEAR     41  37  86 NE6       30.19S
BEEVILLE       FAIR      47  37  70 NE6       30.17S
PLEASANTON     CLOUDY    41  35  81 CALM      30.19S
SAN ANTONIO    MOCLDY    44  35  70 NW3       30.19S
$$

...LAREDO AREA OBSERVATIONS...

CITY           SKY/WX    TMP DP  RH WIND       PRES   REMARKS
LAREDO         CLOUDY    50  39  66 CALM      30.16F
COTULLA        CLOUDY    46  36  68 E6        30.17S
DEL RIO        CLEAR     42  32  67 E7        30.13F
MCALLEN        CLEAR     57  46  66 N7        30.15R
HEBBRONVILLE   CLOUDY    45  42  87 CALM      30.16S
$$

...OTHER TEXAS OBSERVATIONS...

CITY           SKY/WX    TMP DP  RH WIND       PRES   REMARKS
BROWNSVILLE    CLOUDY    60  47  61 N8        30.13R
HOUSTON        CLOUDY    43  39  86 CALM      30.21S
COL. STATION   PTCLDY    45  36  70 E5        30.20S
AUSTIN         CLOUDY    39  37  92 CALM      30.19S
WACO           CLOUDY    33  30  88 CALM      30.18F
FORT WORTH     MOCLDY    41  32  70 S6        30.15S
WICHITA FALLS  PTCLDY    36  27  69 SW13      30.12R WCI  27
LUBBOCK        CLOUDY    34  18  52 SW12      30.04F WCI  25
EL PASO        MOCLDY    40  19  43 N9        30.12R
$$

...MARINE OBSERVATIONS...

STATION/POSITION TIME  SKY/WX   TEMP    WIND        PRES    VSBY  WAVE   SWELL
                                AIR SEA DIR/SP/G                  HT/PER HT/PER
                 (UTC)          (F)     (DEG/KT/KT) (MB)    (MI)  (FT/S) (FT/S)
PORT ARANSAS     1200            61 71   10/ 15/ 16 1021.2R
BUOY 90 E PORT A 1150            67 78   60/ 10/ 17 1020.7F         3/ 6   3/ 6
BUOY 200 E PT IS 1150            70 80   80/ 12/ 16 1019.7R         5/ 7   5/ 7
BUOY 15 E GALVES 1050            61 71   80/ 12/ 14 1022.1          2/ 4
$$




USA.gov is the U.S. government's official web portal to all federal, state and local government web resources and services.